COSMOS 1275 DEB, 39943

Orbit data source: Space-Track

COSMOS 1275 DEB, 39943 is space debris in LEO originally from a launch on Thu, 04 Jun 1981 UTC launched from the Plesetsk Missile And Space Complex (PKMTR). Debris objects in space refer to the collection of defunct objects orbiting the Earth. Examples of debris include non-operational satellites, rocket bodies, and fragments generated from explosions, collisions, or faulty payload assembly.

Loading next visibility...
Identifier
39943, 1981-053ND
Orbit
LEO
Country
Flag of CISCIS
Related business
Manufacturer
Unknown
Mission
Spacecraft
Bus & Motor
Unknown
Mass
Unknown
Launch date (UTC)
1981-06-04 (45 years ago)
Launch vehicle
Unknown
Launch site
Plesetsk Missile And Space Complex (PKMTR)
Object type
Payload
Rocket body
Debris
Shape & HBR
Unknown shape, 0.1 m
Radar Cross Section
Medium (>0.1 m² and <1 m²)

Expand to show TLE details & history
Last TLE update: 6 days ago

TLE from 6 days ago
0 COSMOS 1275 DEB
1 39943U 81053ND  26153.91756067  .00000720  00000-0  84103-3 0  9991
2 39943  83.0645 213.3705 0150332  70.2437  50.0195 13.62450038593968
Epoch: 2026-06-02T22:01Z
TLE epoch observation values (Epoch: 2026-06-02T22:01:17.241Z)
Latitude
57.82167°
Longitude
160.57692°
Altitude
965.989 km
Speed
7.409 km/s
True Right ascension
01h 29m 07s
True Declination
57° 40' 15"
Sunlit
Object was in daylight at epoch
Visualization orbit readout
Latitude
Unknown
Longitude
Unknown
Altitude
Unknown
Speed
Unknown
Apparent Right ascension
Unknown
Apparent Declination
Unknown
Sunlit
N/A
Visualization observer readout
Local Sidereal Time
18:26:56
Azimuth
Unknown
Elevation
Unknown
Doppler factor
Unknown
Orbital elements
Apogee altitude
1,135.239 km
Perigee altitude
912.685 km
Semi-major axis
7,402.099 km
Eccentricity
0.01503
Inclination
83.0645°
RAAN
213.3705°
Arg. of periapsis
70.2437°
True anomaly
51.35553°
Mean anomaly
50.0195°
Eccentric anomaly
50.6859°
Mean motion
3.40809 °/min
Orbital period
105.63 mins
BSTAR
0.00084103
Loading maneuver chart data...
Computing Atmospheric mass density...

Documentation

Showing up to 5 results
|